CPA872 VHHH-KSFO

Flight info

Callsign CPA872
Flight time N/A
Altitude 31000
Route DALOL V631 ENVAR M750 LEKOS/N0501F330 M750 MUKEP Y891 OVSUN/N0495F340 Y893 IGMIS/N0498F330 Y57 POROT OTR11 LEPKI DCT 39N160E/N0484F350 43N170E 46N180E 46N170W 45N160W/N0488F370 45N150W 44N140W 42N130W DCT VESPA DCT AMAKR BDEGA4
Aircraft B77W/H-SDE1E2E3FGHIJ2J3J4J5M1RWXY/LB1D1

Departure

Time 2026-05-06 08:55
Airport Hong Kong International Airport (VHHH)

Arrival

Time N/A
Airport San Francisco International Airport (KSFO)
Time Latitude Longitude Altitude Speed Heading
2026-05-06 08:36 22.30809 113.91756 41 ft 0 kts 72°
2026-05-06 08:45 22.30806 113.91744 41 ft 2 kts 72°
2026-05-06 08:45 22.30801 113.91728 41 ft 2 kts 72°
2026-05-06 08:45 22.30796 113.91713 41 ft 2 kts 72°
2026-05-06 08:46 22.30792 113.91697 41 ft 2 kts 80°
2026-05-06 08:46 22.30791 113.91681 41 ft 2 kts 101°
2026-05-06 08:46 22.30795 113.91665 41 ft 2 kts 117°
2026-05-06 08:46 22.30804 113.91651 41 ft 2 kts 134°
2026-05-06 08:47 22.30816 113.91641 41 ft 2 kts 150°
2026-05-06 08:47 22.30825 113.91637 41 ft 0 kts 162°
2026-05-06 08:47 22.30828 113.91635 41 ft 0 kts 162°
2026-05-06 08:49 22.30797 113.91647 41 ft 10 kts 160°
2026-05-06 08:49 22.30693 113.91685 41 ft 20 kts 161°
2026-05-06 08:49 22.30556 113.91737 41 ft 19 kts 160°
2026-05-06 08:50 22.30443 113.91739 41 ft 15 kts 225°
2026-05-06 08:50 22.30394 113.91629 41 ft 18 kts 250°
2026-05-06 08:50 22.30348 113.91486 41 ft 21 kts 250°
2026-05-06 08:50 22.30294 113.91320 41 ft 24 kts 250°
2026-05-06 08:51 22.30234 113.91138 41 ft 24 kts 250°
2026-05-06 08:51 22.30180 113.90971 41 ft 21 kts 251°
2026-05-06 08:51 22.30135 113.90827 41 ft 18 kts 251°
2026-05-06 08:51 22.30092 113.90697 41 ft 19 kts 251°
2026-05-06 08:52 22.30044 113.90548 41 ft 22 kts 251°
2026-05-06 08:52 22.29991 113.90383 41 ft 23 kts 251°
2026-05-06 08:52 22.29941 113.90228 41 ft 20 kts 251°
2026-05-06 08:52 22.29891 113.90073 41 ft 21 kts 251°
2026-05-06 08:53 22.29839 113.89912 41 ft 22 kts 251°
2026-05-06 08:53 22.29777 113.89774 41 ft 17 kts 203°
2026-05-06 08:53 22.29665 113.89798 41 ft 14 kts 144°
2026-05-06 08:53 22.29653 113.89899 41 ft 17 kts 74°
2026-05-06 08:54 22.29748 113.90190 41 ft 73 kts 70°
2026-05-06 08:54 22.29991 113.90949 41 ft 137 kts 70°
2026-05-06 08:54 22.30369 113.92128 46 ft 191 kts 70°
2026-05-06 08:54 22.30832 113.93536 593 ft 200 kts 72°
2026-05-06 08:55 22.31276 113.94950 1477 ft 196 kts 73°
2026-05-06 08:55 22.31754 113.96410 1794 ft 212 kts 72°
2026-05-06 08:55 22.32262 113.98002 2057 ft 232 kts 73°
2026-05-06 08:55 22.32818 113.99741 2351 ft 251 kts 72°
2026-05-06 08:56 22.33402 114.01554 2917 ft 259 kts 72°
2026-05-06 08:56 22.33869 114.03468 3536 ft 263 kts 86°
2026-05-06 08:56 22.33668 114.05463 4047 ft 268 kts 112°
2026-05-06 08:56 22.32670 114.07189 4642 ft 271 kts 136°
2026-05-06 08:57 22.31137 114.08364 5216 ft 275 kts 158°
2026-05-06 08:57 22.29242 114.08876 5863 ft 276 kts 178°
2026-05-06 08:57 22.27306 114.08833 6527 ft 277 kts 184°
2026-05-06 08:57 22.25352 114.08733 7136 ft 281 kts 183°
2026-05-06 08:58 22.23347 114.08682 7735 ft 285 kts 182°
2026-05-06 08:58 22.21310 114.08656 8335 ft 289 kts 182°
2026-05-06 08:58 22.19236 114.08638 8941 ft 292 kts 181°
2026-05-06 08:58 22.17221 114.09036 9444 ft 300 kts 157°
2026-05-06 08:59 22.15462 114.10377 9947 ft 309 kts 131°
2026-05-06 08:59 22.14247 114.12365 10304 ft 323 kts 119°
2026-05-06 08:59 22.13188 114.14610 10563 ft 340 kts 117°
2026-05-06 08:59 22.12095 114.16966 10847 ft 355 kts 117°
2026-05-06 09:00 22.10943 114.19415 11150 ft 370 kts 117°
2026-05-06 09:00 22.09735 114.21963 11444 ft 385 kts 117°
2026-05-06 09:00 22.08363 114.24583 11728 ft 399 kts 126°
2026-05-06 09:00 22.06543 114.26924 12114 ft 407 kts 137°
2026-05-06 09:01 22.04324 114.28896 12669 ft 411 kts 144°
2026-05-06 09:01 22.01984 114.30747 13240 ft 416 kts 145°
2026-05-06 09:01 21.99607 114.32616 13824 ft 419 kts 145°
2026-05-06 09:01 21.97191 114.34516 14457 ft 421 kts 145°
2026-05-06 09:02 21.94788 114.36407 15044 ft 424 kts 145°
2026-05-06 09:02 21.92369 114.38309 15587 ft 428 kts 145°
2026-05-06 09:02 21.89927 114.40230 16134 ft 431 kts 145°
2026-05-06 09:02 21.87562 114.42374 16673 ft 435 kts 135°
2026-05-06 09:03 21.85603 114.44900 17195 ft 439 kts 125°
2026-05-06 09:03 21.84053 114.47791 17689 ft 444 kts 115°
2026-05-06 09:03 21.82975 114.50952 18165 ft 448 kts 106°
2026-05-06 09:03 21.82131 114.54263 18639 ft 452 kts 105°
2026-05-06 09:04 21.81285 114.57637 19118 ft 456 kts 105°
2026-05-06 09:04 21.80412 114.61085 19591 ft 459 kts 106°
2026-05-06 09:04 21.79545 114.64488 20045 ft 463 kts 106°
2026-05-06 09:04 21.78678 114.67873 20461 ft 467 kts 107°
2026-05-06 09:05 21.77798 114.71290 20886 ft 470 kts 107°
2026-05-06 09:05 21.76902 114.74760 21306 ft 474 kts 107°
2026-05-06 09:05 21.76011 114.78204 21705 ft 477 kts 107°
2026-05-06 09:05 21.75103 114.81714 22107 ft 481 kts 106°
2026-05-06 09:06 21.74487 114.85272 22499 ft 485 kts 96°
2026-05-06 09:06 21.74345 114.88943 22880 ft 489 kts 91°
2026-05-06 09:06 21.74342 114.92689 23285 ft 492 kts 90°
2026-05-06 09:06 21.74347 114.96403 23703 ft 494 kts 90°
2026-05-06 09:07 21.74350 115.00169 24140 ft 496 kts 90°
2026-05-06 09:07 21.74352 115.03922 24529 ft 499 kts 90°
2026-05-06 09:07 21.74351 115.07686 24899 ft 502 kts 90°
2026-05-06 09:07 21.74350 115.11530 25267 ft 506 kts 90°
2026-05-06 09:08 21.74347 115.15355 25629 ft 509 kts 90°
2026-05-06 09:08 21.74342 115.19196 26019 ft 511 kts 90°
2026-05-06 09:08 21.74337 115.23068 26419 ft 514 kts 90°
2026-05-06 09:08 21.74331 115.26994 26817 ft 516 kts 90°
2026-05-06 09:09 21.74323 115.30888 27177 ft 519 kts 90°
2026-05-06 09:09 21.74314 115.34820 27563 ft 521 kts 90°
2026-05-06 09:09 21.74305 115.38797 27894 ft 525 kts 90°
2026-05-06 09:09 21.74294 115.42750 28254 ft 527 kts 89°
2026-05-06 09:10 21.74282 115.46720 28616 ft 530 kts 89°
2026-05-06 09:10 21.74269 115.50776 28953 ft 533 kts 89°
2026-05-06 09:10 21.74256 115.54797 29329 ft 534 kts 89°
2026-05-06 09:10 21.74241 115.58836 29856 ft 533 kts 89°
2026-05-06 09:11 21.74226 115.62883 30403 ft 531 kts 89°
2026-05-06 09:11 21.74211 115.66887 30852 ft 531 kts 90°
2026-05-06 09:11 21.74195 115.70907 30896 ft 534 kts 90°
2026-05-06 09:12 21.74160 115.78979 30904 ft 531 kts 90°
2026-05-06 09:12 21.74121 115.86971 30901 ft 531 kts 90°
2026-05-06 09:13 21.74078 115.95007 30903 ft 531 kts 90°
2026-05-06 09:13 21.74031 116.03042 30906 ft 531 kts 90°
2026-05-06 09:14 21.73981 116.11086 30909 ft 530 kts 90°
2026-05-06 09:14 21.73926 116.19109 30910 ft 531 kts 90°
2026-05-06 09:15 21.73868 116.27114 30909 ft 531 kts 90°
2026-05-06 09:15 21.73806 116.35154 30910 ft 531 kts 90°
2026-05-06 09:16 21.73740 116.43169 30912 ft 531 kts 90°
2026-05-06 09:16 21.73669 116.51238 30915 ft 532 kts 89°
2026-05-06 09:17 21.73595 116.59301 30921 ft 532 kts 89°
2026-05-06 09:17 21.73517 116.67331 30918 ft 532 kts 90°
2026-05-06 09:18 21.73530 116.75367 30916 ft 530 kts 84°
2026-05-06 09:18 21.75089 116.83139 30921 ft 528 kts 68°
2026-05-06 09:19 21.77772 116.90612 30923 ft 527 kts 67°
2026-05-06 09:19 21.80453 116.97992 30925 ft 526 kts 66°
2026-05-06 09:20 21.83150 117.05441 30927 ft 526 kts 66°
2026-05-06 09:20 21.85836 117.12877 30928 ft 526 kts 66°
2026-05-06 09:21 21.88505 117.20280 30930 ft 527 kts 67°
2026-05-06 09:21 21.91178 117.27714 30931 ft 526 kts 67°
2026-05-06 09:22 21.93850 117.35155 30932 ft 526 kts 67°
2026-05-06 09:22 21.96502 117.42554 30930 ft 524 kts 67°
2026-05-06 09:23 21.99258 117.49926 30929 ft 522 kts 61°
2026-05-06 09:23 22.02979 117.56744 30934 ft 521 kts 56°
2026-05-06 09:24 22.06819 117.63490 30935 ft 521 kts 56°
2026-05-06 09:24 22.10652 117.70237 30932 ft 521 kts 56°
2026-05-06 09:25 22.14477 117.76983 30932 ft 521 kts 56°
2026-05-06 09:25 22.18297 117.83732 30935 ft 520 kts 56°
2026-05-06 09:26 22.22089 117.90443 30936 ft 520 kts 56°
2026-05-06 09:26 22.25916 117.97224 30934 ft 521 kts 56°
2026-05-06 09:27 22.29736 118.03919 30935 ft 520 kts 55°
2026-05-06 09:27 22.33658 118.10620 30932 ft 519 kts 55°
2026-05-06 09:28 22.37536 118.17262 30922 ft 518 kts 55°
2026-05-06 09:28 22.41423 118.23960 30925 ft 520 kts 56°
2026-05-06 09:29 22.45258 118.30732 30922 ft 519 kts 56°
2026-05-06 09:29 22.49052 118.37442 30921 ft 520 kts 56°
2026-05-06 09:30 22.52873 118.44204 30922 ft 519 kts 56°
2026-05-06 09:30 22.56690 118.50965 30925 ft 518 kts 56°
2026-05-06 09:31 22.60496 118.57658 30925 ft 517 kts 56°
2026-05-06 09:31 22.64322 118.64371 30929 ft 518 kts 56°
2026-05-06 09:32 22.68138 118.71077 30922 ft 519 kts 56°
2026-05-06 09:32 22.71972 118.77826 30925 ft 519 kts 56°
2026-05-06 09:33 22.75801 118.84576 30924 ft 518 kts 56°
2026-05-06 09:33 22.79596 118.91274 30925 ft 518 kts 56°
2026-05-06 09:34 22.83410 118.98015 30929 ft 517 kts 56°
2026-05-06 09:34 22.87188 119.04701 30928 ft 516 kts 56°
2026-05-06 09:35 22.90986 119.11431 30930 ft 517 kts 56°
2026-05-06 09:35 22.94801 119.18200 30925 ft 518 kts 56°
2026-05-06 09:36 22.98582 119.24919 30934 ft 517 kts 56°
2026-05-06 09:36 23.02358 119.31636 30928 ft 517 kts 56°
2026-05-06 09:37 23.06161 119.38410 30932 ft 517 kts 56°
2026-05-06 09:37 23.09937 119.45146 30932 ft 518 kts 56°
2026-05-06 09:38 23.13725 119.51911 30939 ft 518 kts 56°
2026-05-06 09:38 23.17523 119.58706 30939 ft 517 kts 56°
2026-05-06 09:39 23.21291 119.65448 30940 ft 518 kts 56°
2026-05-06 09:39 23.25063 119.72205 30931 ft 518 kts 56°
2026-05-06 09:40 23.28859 119.79015 30934 ft 517 kts 56°
2026-05-06 09:40 23.34510 119.89168 30930 ft 518 kts 56°
2026-05-06 09:41 23.39035 119.95246 30937 ft 511 kts 41°
2026-05-06 09:41 23.44248 120.00628 30932 ft 511 kts 40°
2026-05-06 09:42 23.49502 120.06032 30939 ft 510 kts 40°
2026-05-06 09:42 23.54718 120.11406 30938 ft 511 kts 40°
2026-05-06 09:43 23.59948 120.16801 30941 ft 511 kts 40°
2026-05-06 09:43 23.65151 120.22178 30947 ft 511 kts 40°
2026-05-06 09:44 23.70357 120.27564 30948 ft 511 kts 40°
2026-05-06 09:44 23.75583 120.32977 30959 ft 510 kts 40°
2026-05-06 09:45 23.80778 120.38364 30963 ft 510 kts 40°
2026-05-06 09:45 23.85972 120.43757 30971 ft 510 kts 40°
2026-05-06 09:46 23.91185 120.49176 30966 ft 510 kts 40°
2026-05-06 09:46 23.96347 120.54610 30976 ft 511 kts 40°
2026-05-06 09:47 24.01507 120.60059 30982 ft 510 kts 40°
2026-05-06 09:47 24.06677 120.65521 30985 ft 510 kts 40°
2026-05-06 09:48 24.11853 120.70995 30994 ft 510 kts 40°
2026-05-06 09:48 24.16985 120.76430 31003 ft 509 kts 40°
2026-05-06 09:49 24.22032 120.81780 31032 ft 509 kts 40°
2026-05-06 09:49 24.27178 120.87240 31073 ft 510 kts 40°
2026-05-06 09:50 24.32335 120.92720 31108 ft 508 kts 40°
2026-05-06 09:50 24.37522 120.98237 31136 ft 508 kts 40°
2026-05-06 09:51 24.42489 121.03843 31166 ft 511 kts 47°
2026-05-06 09:51 24.46976 121.09991 31170 ft 511 kts 48°
2026-05-06 09:52 24.51455 121.16174 31195 ft 512 kts 48°
2026-05-06 09:52 24.55922 121.22346 31179 ft 511 kts 47°
2026-05-06 09:53 24.60414 121.28555 31152 ft 511 kts 47°
2026-05-06 09:53 24.64882 121.34740 31103 ft 510 kts 47°
2026-05-06 09:54 24.69319 121.40888 31061 ft 510 kts 47°
2026-05-06 09:54 24.73787 121.47088 31033 ft 510 kts 47°
2026-05-06 09:55 24.78245 121.53281 31011 ft 511 kts 47°
2026-05-06 09:55 24.82685 121.59456 30984 ft 509 kts 47°
2026-05-06 09:56 24.87136 121.65655 30978 ft 509 kts 48°
2026-05-06 09:56 24.91628 121.71806 30971 ft 508 kts 45°
2026-05-06 09:57 24.96317 121.77728 30972 ft 507 kts 45°
2026-05-06 09:57 25.00992 121.83646 30972 ft 507 kts 45°
2026-05-06 09:58 25.05664 121.89586 30964 ft 507 kts 45°
2026-05-06 09:58 25.10317 121.95517 30955 ft 506 kts 45°
2026-05-06 09:59 25.14990 122.01502 30955 ft 506 kts 45°
2026-05-06 09:59 25.19591 122.07467 30956 ft 505 kts 45°
2026-05-06 10:00 25.24190 122.13436 30954 ft 506 kts 45°
2026-05-06 10:00 25.28784 122.19407 30955 ft 505 kts 45°
2026-05-06 10:01 25.33403 122.25417 30956 ft 505 kts 45°
2026-05-06 10:01 25.37981 122.31381 30955 ft 504 kts 45°
2026-05-06 10:02 25.42567 122.37363 30956 ft 504 kts 45°
2026-05-06 10:02 25.47164 122.43367 30958 ft 503 kts 45°
2026-05-06 10:03 25.51746 122.49355 30959 ft 504 kts 45°
2026-05-06 10:03 25.56324 122.55302 30959 ft 502 kts 44°
2026-05-06 10:04 25.60910 122.61262 30963 ft 502 kts 44°
2026-05-06 10:04 25.65511 122.67251 30950 ft 503 kts 45°
2026-05-06 10:05 25.70092 122.73224 30953 ft 501 kts 45°
2026-05-06 10:05 25.74646 122.79170 30953 ft 501 kts 45°
2026-05-06 10:06 25.79201 122.85124 30961 ft 501 kts 45°
2026-05-06 10:06 25.83777 122.91113 30966 ft 500 kts 45°
2026-05-06 10:07 25.88302 122.97044 30966 ft 500 kts 45°
2026-05-06 10:07 25.92882 123.03056 30970 ft 501 kts 44°
2026-05-06 10:08 25.97409 123.09011 30967 ft 499 kts 44°
2026-05-06 10:08 26.01916 123.14945 30968 ft 499 kts 44°
2026-05-06 10:09 26.06462 123.20938 30970 ft 500 kts 45°
2026-05-06 10:09 26.11007 123.26940 30975 ft 498 kts 45°
2026-05-06 10:10 26.15524 123.32911 30977 ft 499 kts 44°
2026-05-06 10:10 26.20045 123.38896 30982 ft 498 kts 44°
2026-05-06 10:11 26.24538 123.44852 30981 ft 497 kts 44°
2026-05-06 10:11 26.29051 123.50841 30977 ft 497 kts 44°
2026-05-06 10:12 26.33540 123.56808 30983 ft 498 kts 44°
2026-05-06 10:12 26.38015 123.62763 30983 ft 496 kts 44°
2026-05-06 10:13 26.42512 123.68756 30983 ft 497 kts 45°
2026-05-06 10:13 26.47009 123.74757 30976 ft 496 kts 45°
2026-05-06 10:14 26.51471 123.80719 30981 ft 495 kts 45°
2026-05-06 10:14 26.55937 123.86693 30981 ft 496 kts 45°
2026-05-06 10:15 26.60397 123.92670 30986 ft 494 kts 45°
2026-05-06 10:15 26.64836 123.98624 30984 ft 494 kts 45°
2026-05-06 10:16 26.69283 124.04580 30985 ft 493 kts 44°
2026-05-06 10:16 26.73741 124.10545 30985 ft 493 kts 44°
2026-05-06 10:17 26.78190 124.16504 30986 ft 492 kts 45°
2026-05-06 10:17 26.82606 124.22429 30981 ft 493 kts 44°
2026-05-06 10:18 26.87042 124.28390 30976 ft 492 kts 44°
2026-05-06 10:18 26.91454 124.34326 30976 ft 493 kts 45°
2026-05-06 10:19 26.95893 124.40308 30976 ft 489 kts 44°
2026-05-06 10:19 27.00290 124.46237 30978 ft 492 kts 44°
2026-05-06 10:20 27.04701 124.52193 30979 ft 489 kts 44°
2026-05-06 10:20 27.09120 124.58164 30980 ft 491 kts 44°
2026-05-06 10:21 27.13512 124.64109 30993 ft 489 kts 44°
2026-05-06 10:21 27.17910 124.70071 30988 ft 489 kts 45°
2026-05-06 10:22 27.22296 124.76022 30998 ft 490 kts 45°
2026-05-06 10:22 27.26662 124.81956 31001 ft 489 kts 45°
2026-05-06 10:23 27.31030 124.87901 31000 ft 488 kts 45°
2026-05-06 10:23 27.35431 124.93899 31004 ft 488 kts 45°
2026-05-06 10:24 27.39777 124.99830 31005 ft 486 kts 45°
2026-05-06 10:24 27.44146 125.05730 31003 ft 486 kts 45°
2026-05-06 10:25 27.48550 125.11667 31002 ft 486 kts 45°
2026-05-06 10:25 27.52907 125.17551 31007 ft 488 kts 45°
2026-05-06 10:26 27.57268 125.23452 31000 ft 484 kts 44°
2026-05-06 10:26 27.61659 125.29400 31006 ft 485 kts 45°
2026-05-06 10:27 27.66025 125.35323 31003 ft 486 kts 45°
2026-05-06 10:27 27.70377 125.41237 31008 ft 484 kts 45°
2026-05-06 10:28 27.74760 125.47201 31006 ft 485 kts 45°
2026-05-06 10:28 27.79103 125.53118 31007 ft 485 kts 45°
2026-05-06 10:29 27.83455 125.59056 31009 ft 485 kts 45°
2026-05-06 10:29 27.87801 125.64993 31010 ft 485 kts 45°
2026-05-06 10:30 27.92141 125.70933 31004 ft 486 kts 45°
2026-05-06 10:30 27.96496 125.76901 31010 ft 483 kts 45°
2026-05-06 10:31 28.00819 125.82831 31003 ft 485 kts 45°
2026-05-06 10:31 28.05131 125.88756 31005 ft 483 kts 45°
2026-05-06 10:32 28.09478 125.94736 31004 ft 484 kts 45°
2026-05-06 10:32 28.13785 126.00670 31015 ft 484 kts 45°
2026-05-06 10:33 28.18120 126.06649 31015 ft 487 kts 45°
2026-05-06 10:33 28.22487 126.12685 31015 ft 486 kts 46°
2026-05-06 10:34 28.26825 126.18685 31017 ft 490 kts 46°
2026-05-06 10:34 28.31174 126.24713 31013 ft 487 kts 46°
2026-05-06 10:35 28.35518 126.30739 31015 ft 491 kts 46°
2026-05-06 10:35 28.39895 126.36822 31008 ft 490 kts 46°
2026-05-06 10:36 28.44245 126.42876 31004 ft 491 kts 46°
2026-05-06 10:36 28.48608 126.48955 31009 ft 492 kts 46°
2026-05-06 10:37 28.52963 126.55035 31010 ft 492 kts 46°
2026-05-06 10:37 28.57372 126.61196 31014 ft 494 kts 46°
2026-05-06 10:38 28.61750 126.67325 31006 ft 493 kts 47°
2026-05-06 10:38 28.66140 126.73477 31006 ft 498 kts 47°
2026-05-06 10:39 28.70524 126.79633 31005 ft 496 kts 47°
2026-05-06 10:39 28.74907 126.85794 31005 ft 496 kts 48°
2026-05-06 10:40 28.79304 126.91985 31010 ft 496 kts 47°
2026-05-06 10:40 28.83706 126.98192 31018 ft 497 kts 48°
2026-05-06 10:41 28.88083 127.04373 31032 ft 498 kts 48°
2026-05-06 10:41 28.92469 127.10577 31028 ft 497 kts 48°
2026-05-06 10:42 28.96868 127.16807 31026 ft 501 kts 48°
2026-05-06 10:42 29.01297 127.23089 31022 ft 502 kts 48°
2026-05-06 10:43 29.05705 127.29353 31014 ft 501 kts 48°
2026-05-06 10:44 29.12351 127.38811 31010 ft 505 kts 48°
2026-05-06 10:44 29.16825 127.45191 31014 ft 508 kts 49°
2026-05-06 10:45 29.21283 127.51559 31016 ft 507 kts 48°
2026-05-06 10:45 29.25731 127.57923 31011 ft 508 kts 49°
2026-05-06 10:46 29.30189 127.64309 31013 ft 511 kts 49°
2026-05-06 10:46 29.34687 127.70763 31010 ft 510 kts 50°
2026-05-06 10:47 29.39153 127.77183 31013 ft 509 kts 50°
2026-05-06 10:47 29.43610 127.83600 31010 ft 512 kts 50°
2026-05-06 10:48 29.48087 127.90054 31012 ft 511 kts 50°
2026-05-06 10:48 29.52568 127.96525 31023 ft 511 kts 50°
2026-05-06 10:49 29.57022 128.02962 31027 ft 510 kts 50°
2026-05-06 10:49 29.61514 128.09462 31024 ft 512 kts 50°
2026-05-06 10:50 29.65986 128.15941 31025 ft 512 kts 50°
2026-05-06 10:50 29.70492 128.22482 31024 ft 520 kts 50°
2026-05-06 10:51 29.75022 128.29069 31021 ft 515 kts 50°
2026-05-06 10:51 29.79543 128.35654 31016 ft 522 kts 50°
2026-05-06 10:52 29.84106 128.42308 31017 ft 526 kts 50°
2026-05-06 10:52 29.88714 128.49040 31019 ft 531 kts 50°
2026-05-06 10:53 29.93317 128.55778 31017 ft 527 kts 50°
2026-05-06 10:53 29.97925 128.62534 31025 ft 537 kts 50°
2026-05-06 10:54 30.02583 128.69374 31011 ft 532 kts 51°
2026-05-06 10:54 30.07207 128.76176 31013 ft 539 kts 51°
2026-05-06 10:55 30.11865 128.83040 31015 ft 537 kts 51°
2026-05-06 10:55 30.16543 128.89944 31013 ft 539 kts 52°
2026-05-06 10:56 30.21209 128.96845 31009 ft 540 kts 52°
2026-05-06 10:56 30.25864 129.03738 31017 ft 539 kts 52°
2026-05-06 10:57 30.30522 129.10651 31018 ft 540 kts 52°
2026-05-06 10:57 30.35178 129.17572 31020 ft 539 kts 52°
2026-05-06 10:58 30.39831 129.24499 31020 ft 540 kts 52°
2026-05-06 10:58 30.44501 129.31465 31027 ft 539 kts 52°
2026-05-06 10:59 30.49161 129.38428 31029 ft 541 kts 52°
2026-05-06 10:59 30.53825 129.45410 31036 ft 543 kts 52°
2026-05-06 11:00 30.58496 129.52412 31043 ft 543 kts 52°
2026-05-06 11:00 30.63163 129.59422 31044 ft 547 kts 52°
2026-05-06 11:01 30.67860 129.66490 31040 ft 547 kts 52°
2026-05-06 11:01 30.72567 129.73585 31038 ft 550 kts 53°
2026-05-06 11:02 30.77302 129.80737 31044 ft 552 kts 53°
2026-05-06 11:02 30.82023 129.87878 31040 ft 550 kts 53°
2026-05-06 11:03 30.86454 129.95285 31045 ft 555 kts 60°
2026-05-06 11:03 30.90561 130.03005 31055 ft 555 kts 59°
2026-05-06 11:04 30.94671 130.10753 31058 ft 557 kts 59°
2026-05-06 11:04 30.98801 130.18547 31059 ft 557 kts 59°
2026-05-06 11:05 31.02903 130.26305 31063 ft 557 kts 59°
2026-05-06 11:05 31.07005 130.34076 31069 ft 557 kts 59°
2026-05-06 11:06 31.11081 130.41812 31062 ft 556 kts 59°
2026-05-06 11:06 31.15155 130.49561 31062 ft 553 kts 59°
2026-05-06 11:07 31.19239 130.57341 31063 ft 555 kts 59°
2026-05-06 11:07 31.23294 130.65085 31068 ft 554 kts 60°
2026-05-06 11:08 31.27348 130.72841 31057 ft 552 kts 60°
2026-05-06 11:08 31.31396 130.80598 31064 ft 554 kts 60°
2026-05-06 11:09 31.35442 130.88373 31068 ft 554 kts 60°
2026-05-06 11:09 31.39484 130.96150 31072 ft 555 kts 60°
2026-05-06 11:10 31.43532 131.03957 31080 ft 558 kts 60°
2026-05-06 11:10 31.47599 131.11816 31074 ft 557 kts 60°
2026-05-06 11:11 31.51654 131.19669 31082 ft 561 kts 60°
2026-05-06 11:11 31.55717 131.27553 31081 ft 558 kts 60°
2026-05-06 11:12 31.59775 131.35443 31082 ft 560 kts 60°
2026-05-06 11:12 31.63811 131.43311 31084 ft 558 kts 60°
2026-05-06 11:13 31.67860 131.51225 31081 ft 559 kts 60°
2026-05-06 11:13 31.71887 131.59113 31082 ft 558 kts 60°
2026-05-06 11:14 31.75916 131.67020 31077 ft 559 kts 60°
2026-05-06 11:14 31.79943 131.74942 31071 ft 560 kts 60°
2026-05-06 11:15 31.83971 131.82880 31078 ft 560 kts 60°
2026-05-06 11:15 31.87982 131.90801 31074 ft 558 kts 60°
2026-05-06 11:16 31.91998 131.98749 31080 ft 561 kts 60°
2026-05-06 11:16 31.96013 132.06711 31080 ft 561 kts 60°
2026-05-06 11:17 32.00033 132.14700 31081 ft 560 kts 60°
2026-05-06 11:17 32.04043 132.22687 31083 ft 561 kts 60°
2026-05-06 11:18 32.08049 132.30681 31086 ft 561 kts 60°
2026-05-06 11:18 32.12044 132.38673 31075 ft 562 kts 60°
2026-05-06 11:19 32.15758 132.46918 31075 ft 560 kts 65°
2026-05-06 11:19 32.19233 132.55246 31077 ft 559 kts 65°
2026-05-06 11:20 32.22718 132.63565 31079 ft 560 kts 65°
2026-05-06 11:20 32.26189 132.71835 31071 ft 558 kts 65°
2026-05-06 11:21 32.29677 132.80142 31078 ft 562 kts 65°
2026-05-06 11:21 32.33192 132.88522 31076 ft 560 kts 65°
2026-05-06 11:22 32.36687 132.96867 31081 ft 564 kts 65°
2026-05-06 11:22 32.40190 133.05249 31081 ft 563 kts 65°
2026-05-06 11:23 32.43687 133.13631 31081 ft 562 kts 65°
2026-05-06 11:23 32.47171 133.22002 31083 ft 562 kts 65°
2026-05-06 11:24 32.50650 133.30380 31085 ft 562 kts 65°
2026-05-06 11:24 32.54121 133.38759 31080 ft 561 kts 65°
2026-05-06 11:25 32.57589 133.47148 31079 ft 561 kts 65°
2026-05-06 11:25 32.61069 133.55588 31086 ft 566 kts 65°
2026-05-06 11:26 32.64529 133.63995 31083 ft 560 kts 65°
2026-05-06 11:26 32.68000 133.72452 31074 ft 563 kts 66°
2026-05-06 11:27 32.71454 133.80887 31076 ft 562 kts 66°
2026-05-06 11:27 32.74900 133.89322 31074 ft 564 kts 66°
2026-05-06 11:28 32.78349 133.97783 31077 ft 562 kts 66°
2026-05-06 11:28 32.81748 134.06256 31068 ft 560 kts 70°
2026-05-06 11:29 32.84186 134.15124 31076 ft 559 kts 76°
2026-05-06 11:29 32.86414 134.24060 31078 ft 559 kts 76°
2026-05-06 11:30 32.88642 134.33022 31079 ft 557 kts 76°
2026-05-06 11:30 32.90852 134.41942 31086 ft 560 kts 76°
2026-05-06 11:31 32.93063 134.50890 31079 ft 559 kts 76°
2026-05-06 11:31 32.95273 134.59862 31087 ft 561 kts 76°
2026-05-06 11:32 32.97481 134.68857 31073 ft 560 kts 77°
2026-05-06 11:32 32.99649 134.77830 31065 ft 560 kts 80°
2026-05-06 11:33 33.00882 134.87048 31072 ft 555 kts 86°
2026-05-06 11:33 33.01886 134.96265 31081 ft 557 kts 86°
2026-05-06 11:34 33.02885 135.05504 31084 ft 553 kts 86°
2026-05-06 11:34 33.03869 135.14658 31080 ft 553 kts 86°
2026-05-06 11:35 33.04852 135.23865 31091 ft 554 kts 86°
2026-05-06 11:35 33.05820 135.32994 31082 ft 552 kts 86°
2026-05-06 11:36 33.06788 135.42191 31092 ft 553 kts 87°
2026-05-06 11:36 33.07740 135.51294 31088 ft 546 kts 87°
2026-05-06 11:37 33.08687 135.60428 31094 ft 549 kts 87°
2026-05-06 11:37 33.09627 135.69548 31087 ft 548 kts 88°
2026-05-06 11:38 33.10558 135.78656 31074 ft 545 kts 88°
2026-05-06 11:38 33.11477 135.87715 31067 ft 546 kts 88°
2026-05-06 11:39 33.12399 135.96874 31075 ft 546 kts 88°
2026-05-06 11:39 33.13302 136.05899 31080 ft 547 kts 88°
2026-05-06 11:40 33.14209 136.15030 31076 ft 544 kts 88°
2026-05-06 11:40 33.15105 136.24141 31074 ft 548 kts 88°
2026-05-06 11:41 33.15995 136.33247 31077 ft 548 kts 88°
2026-05-06 11:41 33.16880 136.42368 31084 ft 550 kts 87°
2026-05-06 11:42 33.17760 136.51500 31081 ft 547 kts 88°
2026-05-06 11:42 33.18634 136.60658 31083 ft 550 kts 87°
2026-05-06 11:43 33.19503 136.69840 31075 ft 549 kts 88°
2026-05-06 11:43 33.20363 136.78998 31081 ft 553 kts 88°
2026-05-06 11:44 33.21646 136.92784 31063 ft 553 kts 88°
2026-05-06 11:44 33.22495 137.01996 31060 ft 548 kts 88°
2026-05-06 11:45 33.23594 137.11148 31058 ft 560 kts 79°
2026-05-06 11:45 33.25802 137.20201 31065 ft 558 kts 76°
2026-05-06 11:46 33.28046 137.29123 31068 ft 556 kts 76°
2026-05-06 11:46 33.30290 137.38100 31078 ft 557 kts 76°
2026-05-06 11:47 33.32524 137.47081 31075 ft 558 kts 76°
2026-05-06 11:47 33.34743 137.56041 31084 ft 560 kts 76°
2026-05-06 11:48 33.36960 137.65027 31078 ft 558 kts 76°
2026-05-06 11:48 33.39174 137.74030 31075 ft 558 kts 76°
2026-05-06 11:49 33.41382 137.83046 31071 ft 559 kts 76°
2026-05-06 11:49 33.43926 137.91940 31076 ft 560 kts 65°
2026-05-06 11:50 33.47901 138.00145 31085 ft 563 kts 58°
2026-05-06 11:50 33.52023 138.08138 31087 ft 561 kts 58°
2026-05-06 11:51 33.56194 138.16252 31093 ft 564 kts 58°
2026-05-06 11:51 33.60332 138.24327 31088 ft 563 kts 58°
2026-05-06 11:52 33.64476 138.32436 31104 ft 566 kts 58°
2026-05-06 11:52 33.68613 138.40550 31104 ft 564 kts 58°
2026-05-06 11:53 33.72741 138.48666 31109 ft 562 kts 58°
2026-05-06 11:53 33.76849 138.56764 31123 ft 563 kts 58°
2026-05-06 11:54 33.80980 138.64923 31118 ft 564 kts 57°
2026-05-06 11:54 33.85075 138.73029 31114 ft 562 kts 58°
2026-05-06 11:55 33.89209 138.81230 31108 ft 565 kts 59°
2026-05-06 11:55 33.93297 138.89360 31115 ft 564 kts 58°
2026-05-06 11:56 33.97394 138.97527 31122 ft 565 kts 58°
2026-05-06 11:56 34.01491 139.05711 31126 ft 562 kts 58°
2026-05-06 11:57 34.05571 139.13879 31142 ft 565 kts 58°
2026-05-06 11:57 34.09659 139.22084 31142 ft 565 kts 58°
2026-05-06 11:58 34.13776 139.30364 31133 ft 568 kts 58°
2026-05-06 11:58 34.17894 139.38666 31137 ft 567 kts 58°
2026-05-06 11:59 34.21972 139.46902 31141 ft 566 kts 58°
2026-05-06 11:59 34.26067 139.55196 31139 ft 567 kts 58°
2026-05-06 12:00 34.30133 139.63449 31145 ft 568 kts 58°
2026-05-06 12:00 34.34208 139.71738 31134 ft 567 kts 59°
2026-05-06 12:01 34.38263 139.80008 31131 ft 569 kts 58°
2026-05-06 12:01 34.42329 139.88318 31135 ft 566 kts 59°
2026-05-06 12:02 34.46390 139.96639 31129 ft 568 kts 59°
2026-05-06 12:02 34.50458 140.04993 31134 ft 572 kts 59°
2026-05-06 12:03 34.54517 140.13348 31143 ft 569 kts 59°
2026-05-06 12:03 34.58574 140.21721 31145 ft 568 kts 59°
2026-05-06 12:04 34.62622 140.30093 31154 ft 570 kts 59°
2026-05-06 12:04 34.66666 140.38480 31153 ft 569 kts 59°
2026-05-06 12:05 34.70679 140.46840 31149 ft 567 kts 60°
2026-05-06 12:05 34.74573 140.55296 31162 ft 570 kts 60°
2026-05-06 12:06 34.78473 140.63802 31160 ft 568 kts 61°
2026-05-06 12:06 34.82356 140.72284 31155 ft 569 kts 61°
2026-05-06 12:07 34.86232 140.80766 31139 ft 567 kts 61°
2026-05-06 12:07 34.90103 140.89253 31138 ft 566 kts 61°
2026-05-06 12:08 34.93961 140.97731 31143 ft 567 kts 61°
2026-05-06 12:08 34.97812 141.06215 31138 ft 568 kts 60°
2026-05-06 12:09 35.01683 141.14761 31148 ft 567 kts 60°
2026-05-06 12:09 35.05530 141.23276 31162 ft 570 kts 60°
2026-05-06 12:10 35.09391 141.31842 31160 ft 571 kts 60°
2026-05-06 12:10 35.13244 141.40411 31150 ft 571 kts 60°
2026-05-06 12:11 35.17120 141.49056 31156 ft 574 kts 60°
2026-05-06 12:11 35.20992 141.57710 31154 ft 570 kts 60°
2026-05-06 12:12 35.24826 141.66304 31152 ft 572 kts 61°
2026-05-06 12:12 35.28697 141.75003 31145 ft 575 kts 61°
2026-05-06 12:13 35.32541 141.83661 31154 ft 572 kts 61°
2026-05-06 12:13 35.36373 141.92319 31154 ft 576 kts 60°
2026-05-06 12:14 35.40236 142.01065 31166 ft 574 kts 61°
2026-05-06 12:14 35.44064 142.09755 31156 ft 575 kts 61°
2026-05-06 12:15 35.47898 142.18480 31159 ft 577 kts 60°
2026-05-06 12:15 35.51720 142.27203 31165 ft 574 kts 60°
2026-05-06 12:16 35.55548 142.35960 31167 ft 575 kts 61°
2026-05-06 12:16 35.59372 142.44731 31169 ft 577 kts 60°
2026-05-06 12:17 35.63191 142.53516 31172 ft 578 kts 61°
2026-05-06 12:17 35.67000 142.62300 31180 ft 577 kts 60°
2026-05-06 12:18 35.70834 142.71164 31159 ft 580 kts 61°
2026-05-06 12:18 35.74647 142.80003 31160 ft 581 kts 62°
2026-05-06 12:19 35.78453 142.88850 31159 ft 578 kts 62°
2026-05-06 12:19 35.82241 142.97679 31163 ft 579 kts 61°
2026-05-06 12:20 35.86051 143.06581 31163 ft 582 kts 62°
2026-05-06 12:20 35.89839 143.15456 31174 ft 579 kts 61°
2026-05-06 12:21 35.92771 143.24776 31160 ft 581 kts 78°
2026-05-06 12:21 35.94097 143.34705 31176 ft 573 kts 85°
2026-05-06 12:22 35.95157 143.44516 31182 ft 576 kts 85°
2026-05-06 12:22 35.96196 143.54401 31192 ft 573 kts 85°
2026-05-06 12:23 35.97204 143.64186 31185 ft 573 kts 85°
2026-05-06 12:23 35.98199 143.73988 31176 ft 568 kts 87°
2026-05-06 12:24 35.99180 143.83771 31173 ft 567 kts 86°
2026-05-06 12:24 36.00146 143.93520 31184 ft 570 kts 86°
2026-05-06 12:25 36.01108 144.03308 31186 ft 563 kts 86°
2026-05-06 12:25 36.02052 144.13008 31192 ft 569 kts 87°
2026-05-06 12:26 36.03001 144.22849 31196 ft 567 kts 86°
2026-05-06 12:26 36.03934 144.32620 31200 ft 571 kts 86°
2026-05-06 12:27 36.04863 144.42419 31210 ft 567 kts 86°
2026-05-06 12:27 36.05791 144.52300 31214 ft 571 kts 86°
2026-05-06 12:28 36.06707 144.62152 31221 ft 575 kts 86°
2026-05-06 12:28 36.07619 144.72040 31206 ft 574 kts 87°
2026-05-06 12:29 36.08522 144.81920 31214 ft 577 kts 86°
2026-05-06 12:29 36.09424 144.91893 31216 ft 576 kts 86°
2026-05-06 12:30 36.10314 145.01814 31215 ft 577 kts 86°
2026-05-06 12:30 36.11202 145.11810 31221 ft 578 kts 86°
2026-05-06 12:31 36.12078 145.21765 31223 ft 577 kts 86°
2026-05-06 12:31 36.12944 145.31699 31228 ft 576 kts 86°
2026-05-06 12:32 36.13806 145.41689 31231 ft 576 kts 86°
2026-05-06 12:32 36.15197 145.51555 31242 ft 580 kts 76°
2026-05-06 12:33 36.17251 145.61282 31239 ft 580 kts 75°
2026-05-06 12:33 36.19318 145.71104 31218 ft 581 kts 77°
2026-05-06 12:34 36.21354 145.80856 31228 ft 584 kts 77°
2026-05-06 12:34 36.23392 145.90686 31227 ft 581 kts 77°
2026-05-06 12:35 36.25420 146.00532 31233 ft 585 kts 76°
2026-05-06 12:35 36.27429 146.10329 31236 ft 584 kts 76°
2026-05-06 12:36 36.29437 146.20171 31239 ft 585 kts 76°
2026-05-06 12:36 36.31437 146.30020 31241 ft 585 kts 76°
2026-05-06 12:37 36.33427 146.39865 31243 ft 585 kts 76°
2026-05-06 12:37 36.35426 146.49806 31244 ft 588 kts 76°
2026-05-06 12:38 36.37408 146.59708 31251 ft 587 kts 75°
2026-05-06 12:38 36.39381 146.69606 31235 ft 586 kts 76°
2026-05-06 12:39 36.41361 146.79591 31236 ft 586 kts 75°
2026-05-06 12:39 36.43312 146.89476 31237 ft 587 kts 75°
2026-05-06 12:40 36.45274 146.99460 31241 ft 586 kts 76°
2026-05-06 12:40 36.47207 147.09341 31242 ft 587 kts 76°
2026-05-06 12:41 36.49141 147.19279 31244 ft 588 kts 75°
2026-05-06 12:41 36.51073 147.29253 31247 ft 587 kts 75°
2026-05-06 12:42 36.52996 147.39230 31249 ft 590 kts 75°
2026-05-06 12:42 36.54910 147.49208 31254 ft 589 kts 75°
2026-05-06 12:43 36.56824 147.59236 31253 ft 587 kts 75°
2026-05-06 12:43 36.58719 147.69206 31231 ft 588 kts 76°
2026-05-06 12:44 36.60617 147.79250 31237 ft 588 kts 76°
2026-05-06 12:44 36.62497 147.89241 31238 ft 588 kts 76°
2026-05-06 12:45 36.64374 147.99268 31240 ft 588 kts 76°
2026-05-06 12:46 36.67160 148.14244 31248 ft 587 kts 76°
2026-05-06 12:46 36.69022 148.24313 31251 ft 587 kts 76°
2026-05-06 12:47 36.70860 148.34305 31260 ft 587 kts 75°
2026-05-06 12:47 36.72701 148.44367 31267 ft 587 kts 76°
2026-05-06 12:48 36.74524 148.54375 31281 ft 587 kts 75°
2026-05-06 12:48 36.76333 148.64359 31279 ft 586 kts 76°
2026-05-06 12:49 36.78148 148.74428 31268 ft 586 kts 76°
2026-05-06 12:49 36.79945 148.84448 31274 ft 587 kts 76°
2026-05-06 12:50 36.81728 148.94443 31279 ft 586 kts 76°
2026-05-06 12:50 36.83504 149.04451 31283 ft 586 kts 76°
2026-05-06 12:51 36.85279 149.14504 31288 ft 585 kts 76°
2026-05-06 12:51 36.87044 149.24554 31287 ft 587 kts 75°
2026-05-06 12:52 36.88794 149.34572 31290 ft 587 kts 75°
2026-05-06 12:52 36.90543 149.44635 31298 ft 586 kts 76°
2026-05-06 12:53 36.92277 149.54662 31290 ft 586 kts 75°
2026-05-06 12:53 36.94002 149.64694 31295 ft 586 kts 75°
2026-05-06 12:54 36.95724 149.74762 31274 ft 586 kts 76°
2026-05-06 12:54 36.97436 149.84825 31277 ft 585 kts 76°
2026-05-06 12:55 36.99148 149.94946 31287 ft 588 kts 75°
2026-05-06 12:55 37.00997 150.04988 31277 ft 584 kts 70°
2026-05-06 12:56 37.03483 150.14725 31286 ft 583 kts 68°
2026-05-06 12:56 37.05973 150.24533 31284 ft 585 kts 69°
2026-05-06 12:57 37.08414 150.34311 31289 ft 586 kts 69°
2026-05-06 12:57 37.10849 150.44171 31292 ft 583 kts 69°
2026-05-06 12:58 37.13257 150.53992 31294 ft 587 kts 70°
2026-05-06 12:58 37.15667 150.63890 31294 ft 587 kts 70°
2026-05-06 12:59 37.18058 150.73764 31274 ft 584 kts 70°
2026-05-06 12:59 37.20421 150.83569 31272 ft 586 kts 70°
2026-05-06 13:00 37.22806 150.93506 31277 ft 588 kts 70°
2026-05-06 13:00 37.25177 151.03435 31279 ft 588 kts 71°
2026-05-06 13:01 37.27537 151.13359 31289 ft 588 kts 70°
2026-05-06 13:01 37.29880 151.23251 31295 ft 587 kts 70°
2026-05-06 13:02 37.32232 151.33220 31295 ft 589 kts 70°
2026-05-06 13:02 37.34577 151.43210 31298 ft 590 kts 69°
2026-05-06 13:03 37.36895 151.53126 31300 ft 587 kts 69°
2026-05-06 13:03 37.39220 151.63109 31310 ft 586 kts 69°
2026-05-06 13:04 37.41530 151.73067 31290 ft 590 kts 71°
2026-05-06 13:04 37.43824 151.83002 31287 ft 586 kts 70°
2026-05-06 13:05 37.46129 151.93025 31299 ft 587 kts 70°
2026-05-06 13:05 37.48411 152.02995 31303 ft 588 kts 70°
2026-05-06 13:06 37.50704 152.13051 31298 ft 589 kts 70°
2026-05-06 13:06 37.52964 152.23009 31306 ft 588 kts 70°
2026-05-06 13:07 37.55220 152.32994 31312 ft 588 kts 70°
2026-05-06 13:07 37.57473 152.43007 31312 ft 588 kts 70°
2026-05-06 13:08 37.59721 152.53038 31318 ft 588 kts 70°
2026-05-06 13:08 37.61948 152.63025 31318 ft 589 kts 70°
2026-05-06 13:09 37.64183 152.73088 31300 ft 588 kts 71°
2026-05-06 13:09 37.66398 152.83105 31297 ft 588 kts 71°
2026-05-06 13:10 37.68600 152.93109 31299 ft 587 kts 71°
2026-05-06 13:10 37.70795 153.03128 31306 ft 584 kts 70°
2026-05-06 13:11 37.72992 153.13194 31316 ft 585 kts 71°
2026-05-06 13:11 37.75169 153.23218 31315 ft 589 kts 71°
2026-05-06 13:12 37.77345 153.33287 31321 ft 585 kts 71°
2026-05-06 13:12 37.79500 153.43292 31323 ft 589 kts 71°
2026-05-06 13:13 37.81644 153.53305 31327 ft 587 kts 71°
2026-05-06 13:13 37.83796 153.63390 31333 ft 587 kts 71°
2026-05-06 13:14 37.85934 153.73459 31312 ft 588 kts 71°
2026-05-06 13:14 37.88073 153.83580 31325 ft 589 kts 72°
2026-05-06 13:15 37.90194 153.93663 31335 ft 587 kts 71°
2026-05-06 13:15 37.92300 154.03720 31343 ft 588 kts 72°
2026-05-06 13:16 37.94402 154.13803 31346 ft 588 kts 72°
2026-05-06 13:16 37.96503 154.23938 31345 ft 585 kts 71°
2026-05-06 13:17 37.98578 154.33984 31342 ft 586 kts 72°
2026-05-06 13:17 38.00661 154.44124 31346 ft 586 kts 71°
2026-05-06 13:18 38.02722 154.54196 31342 ft 587 kts 72°
2026-05-06 13:18 38.04786 154.64336 31346 ft 587 kts 71°
2026-05-06 13:19 38.06837 154.74460 31317 ft 586 kts 72°
2026-05-06 13:19 38.08873 154.84555 31318 ft 587 kts 72°
2026-05-06 13:20 38.10917 154.94743 31322 ft 590 kts 72°
2026-05-06 13:20 38.12953 155.04944 31331 ft 587 kts 72°
2026-05-06 13:21 38.14967 155.15077 31324 ft 587 kts 72°
2026-05-06 13:21 38.16969 155.25206 31341 ft 587 kts 71°
2026-05-06 13:22 38.18969 155.35365 31334 ft 587 kts 72°
2026-05-06 13:22 38.20960 155.45535 31327 ft 588 kts 72°
2026-05-06 13:23 38.22949 155.55745 31341 ft 588 kts 72°
2026-05-06 13:23 38.24924 155.65932 31336 ft 587 kts 72°
2026-05-06 13:24 38.26880 155.76076 31319 ft 585 kts 72°
2026-05-06 13:24 38.28840 155.86284 31331 ft 590 kts 72°
2026-05-06 13:25 38.30801 155.96559 31334 ft 587 kts 72°
2026-05-06 13:25 38.32735 156.06741 31340 ft 587 kts 72°
2026-05-06 13:26 38.34674 156.16997 31337 ft 588 kts 72°
2026-05-06 13:26 38.36593 156.27203 31350 ft 587 kts 72°
2026-05-06 13:27 38.38504 156.37418 31356 ft 588 kts 71°
2026-05-06 13:27 38.40412 156.47672 31356 ft 587 kts 72°
2026-05-06 13:28 38.42303 156.57886 31362 ft 587 kts 72°
2026-05-06 13:28 38.44186 156.68109 31337 ft 587 kts 72°
2026-05-06 13:29 38.46066 156.78369 31348 ft 589 kts 72°
2026-05-06 13:29 38.47947 156.88693 31347 ft 589 kts 72°
2026-05-06 13:30 38.49805 156.98944 31339 ft 584 kts 73°
2026-05-06 13:30 38.51651 157.09180 31347 ft 588 kts 72°
2026-05-06 13:31 38.53490 157.19437 31347 ft 586 kts 72°
2026-05-06 13:31 38.55322 157.29706 31350 ft 589 kts 72°
2026-05-06 13:32 38.57152 157.40024 31354 ft 586 kts 73°
2026-05-06 13:32 38.58962 157.50281 31360 ft 586 kts 73°
2026-05-06 13:33 38.60766 157.60561 31361 ft 586 kts 72°
2026-05-06 13:33 38.62553 157.70799 31339 ft 587 kts 73°
2026-05-06 13:34 38.64345 157.81120 31343 ft 588 kts 73°
2026-05-06 13:34 38.66117 157.91391 31349 ft 586 kts 73°
2026-05-06 13:35 38.67878 158.01651 31344 ft 586 kts 73°
2026-05-06 13:35 38.69634 158.11943 31353 ft 585 kts 73°
2026-05-06 13:36 38.71377 158.22211 31351 ft 585 kts 73°
2026-05-06 13:36 38.73112 158.32489 31355 ft 585 kts 74°
2026-05-06 13:37 38.74843 158.42802 31353 ft 587 kts 73°
2026-05-06 13:37 38.76557 158.53082 31351 ft 586 kts 74°
2026-05-06 13:38 38.78270 158.63405 31355 ft 586 kts 74°
2026-05-06 13:38 38.79968 158.73698 31331 ft 585 kts 74°
2026-05-06 13:39 38.81669 158.84078 31330 ft 585 kts 75°
2026-05-06 13:39 38.83349 158.94377 31347 ft 587 kts 75°
2026-05-06 13:40 38.85020 159.04697 31347 ft 586 kts 74°
2026-05-06 13:40 38.86681 159.15001 31339 ft 587 kts 75°
2026-05-06 13:41 38.88338 159.25356 31337 ft 585 kts 74°
2026-05-06 13:41 38.89981 159.35673 31343 ft 587 kts 74°
2026-05-06 13:42 38.91629 159.46085 31344 ft 586 kts 75°
2026-05-06 13:42 38.93254 159.56422 31339 ft 585 kts 74°
2026-05-06 13:43 38.94871 159.66759 31336 ft 587 kts 75°
2026-05-06 13:43 38.96477 159.77098 31327 ft 587 kts 75°
2026-05-06 13:44 38.98092 159.87553 31338 ft 586 kts 75°
2026-05-06 13:44 38.99749 159.97842 31338 ft 581 kts 69°
2026-05-06 13:45 39.02848 160.07452 31350 ft 566 kts 52°
2026-05-06 13:45 39.09198 160.20369 31342 ft 563 kts 50°
2026-05-06 13:46 39.13383 160.29042 31365 ft 566 kts 51°
2026-05-06 13:46 39.17519 160.37766 31348 ft 563 kts 51°
2026-05-06 13:47 39.21624 160.46518 31347 ft 567 kts 52°
2026-05-06 13:47 39.25708 160.55301 31350 ft 561 kts 51°
2026-05-06 13:48 39.29760 160.64058 31357 ft 562 kts 51°
2026-05-06 13:48 39.33807 160.72841 31337 ft 561 kts 52°
2026-05-06 13:49 39.37847 160.81644 31338 ft 563 kts 52°
2026-05-06 13:49 39.41879 160.90457 31338 ft 565 kts 52°
2026-05-06 13:50 39.45891 160.99257 31339 ft 565 kts 52°
2026-05-06 13:50 39.49896 161.08070 31335 ft 560 kts 52°
2026-05-06 13:51 39.53896 161.16893 31342 ft 562 kts 53°
2026-05-06 13:51 39.57850 161.25645 31339 ft 559 kts 53°
2026-05-06 13:52 39.61822 161.34454 31327 ft 560 kts 53°
2026-05-06 13:52 39.65808 161.43323 31334 ft 561 kts 53°
2026-05-06 13:53 39.69739 161.52100 31344 ft 558 kts 52°
2026-05-06 13:53 39.73682 161.60921 31326 ft 560 kts 53°
2026-05-06 13:54 39.77648 161.69820 31317 ft 560 kts 54°
2026-05-06 13:54 39.81564 161.78636 31315 ft 559 kts 54°
2026-05-06 13:55 39.85487 161.87491 31314 ft 557 kts 54°
2026-05-06 13:55 39.89400 161.96350 31311 ft 558 kts 54°
2026-05-06 13:56 39.93275 162.05144 31313 ft 556 kts 54°
2026-05-06 13:56 39.97170 162.14009 31309 ft 560 kts 54°
2026-05-06 13:57 40.01076 162.22928 31338 ft 560 kts 54°
2026-05-06 13:57 40.04945 162.31787 31326 ft 557 kts 54°
2026-05-06 13:58 40.08794 162.40631 31326 ft 553 kts 54°
2026-05-06 13:58 40.12635 162.49471 31329 ft 556 kts 54°
2026-05-06 13:59 40.16473 162.58336 31334 ft 555 kts 54°
2026-05-06 13:59 40.20311 162.67229 31317 ft 552 kts 54°
2026-05-06 14:00 40.24103 162.76038 31322 ft 553 kts 55°
2026-05-06 14:00 40.27909 162.84903 31304 ft 551 kts 55°
2026-05-06 14:01 40.31702 162.93762 31318 ft 554 kts 55°
2026-05-06 14:01 40.35489 163.02638 31294 ft 550 kts 56°
2026-05-06 14:02 40.39291 163.11575 31308 ft 548 kts 55°
2026-05-06 14:02 40.43014 163.20352 31304 ft 547 kts 55°
2026-05-06 14:03 40.46745 163.29170 31299 ft 546 kts 55°
2026-05-06 14:03 40.50452 163.37958 31305 ft 546 kts 55°
2026-05-06 14:04 40.54177 163.46812 31318 ft 547 kts 56°
2026-05-06 14:04 40.57869 163.55620 31293 ft 542 kts 56°
2026-05-06 14:05 40.61549 163.64421 31311 ft 541 kts 56°
2026-05-06 14:05 40.65198 163.73173 31290 ft 541 kts 56°
2026-05-06 14:06 40.68849 163.81953 31302 ft 541 kts 57°
2026-05-06 14:06 40.72492 163.90742 31311 ft 539 kts 57°
2026-05-06 14:07 40.76113 163.99506 31291 ft 539 kts 57°
2026-05-06 14:07 40.79713 164.08244 31290 ft 536 kts 57°
2026-05-06 14:08 40.83292 164.16951 31284 ft 534 kts 57°
2026-05-06 14:08 40.86868 164.25681 31298 ft 534 kts 57°
2026-05-06 14:09 40.90416 164.34366 31280 ft 533 kts 57°
2026-05-06 14:09 40.93979 164.43114 31293 ft 533 kts 57°
2026-05-06 14:10 40.97530 164.51859 31276 ft 531 kts 57°
2026-05-06 14:10 41.01047 164.60542 31282 ft 532 kts 57°
2026-05-06 14:11 41.04558 164.69240 31269 ft 530 kts 58°
2026-05-06 14:11 41.08087 164.78006 31265 ft 532 kts 58°
2026-05-06 14:12 41.11586 164.86722 31264 ft 530 kts 58°
2026-05-06 14:12 41.15083 164.95460 31262 ft 530 kts 58°
2026-05-06 14:13 41.18553 165.04158 31250 ft 528 kts 58°
2026-05-06 14:13 41.22018 165.12868 31253 ft 529 kts 58°
2026-05-06 14:14 41.25490 165.21620 31265 ft 528 kts 58°
2026-05-06 14:14 41.28967 165.30412 31258 ft 529 kts 58°
2026-05-06 14:15 41.32408 165.39140 31251 ft 528 kts 58°
2026-05-06 14:15 41.35838 165.47864 31245 ft 528 kts 58°
2026-05-06 14:16 41.39277 165.56638 31256 ft 528 kts 58°
2026-05-06 14:16 41.42724 165.65459 31255 ft 529 kts 59°
2026-05-06 14:17 41.46159 165.74274 31243 ft 529 kts 59°
2026-05-06 14:17 41.49579 165.83079 31246 ft 529 kts 59°
2026-05-06 14:18 41.52992 165.91893 31243 ft 529 kts 58°
2026-05-06 14:18 41.56422 166.00775 31231 ft 531 kts 58°
2026-05-06 14:19 41.59818 166.09599 31231 ft 530 kts 58°
2026-05-06 14:19 41.63229 166.18488 31223 ft 529 kts 58°
2026-05-06 14:20 41.66627 166.27371 31221 ft 529 kts 58°
2026-05-06 14:20 41.69996 166.36202 31218 ft 530 kts 58°
2026-05-06 14:21 41.73367 166.45068 31221 ft 531 kts 58°
2026-05-06 14:21 41.76745 166.53979 31231 ft 531 kts 58°
2026-05-06 14:22 41.80093 166.62839 31216 ft 532 kts 58°
2026-05-06 14:22 41.83476 166.71822 31212 ft 531 kts 59°
2026-05-06 14:23 41.86839 166.80775 31202 ft 532 kts 59°
2026-05-06 14:23 41.90186 166.89719 31207 ft 532 kts 59°
2026-05-06 14:24 41.93533 166.98685 31203 ft 533 kts 59°
2026-05-06 14:24 41.96877 167.07674 31198 ft 532 kts 58°
2026-05-06 14:25 42.00222 167.16692 31197 ft 533 kts 59°
2026-05-06 14:25 42.03558 167.25717 31194 ft 533 kts 58°
2026-05-06 14:26 42.06883 167.34738 31198 ft 533 kts 58°
2026-05-06 14:26 42.10189 167.43739 31206 ft 533 kts 58°
2026-05-06 14:27 42.13513 167.52815 31201 ft 534 kts 58°
2026-05-06 14:27 42.16807 167.61839 31205 ft 535 kts 58°
2026-05-06 14:28 42.20125 167.70958 31202 ft 533 kts 59°
2026-05-06 14:28 42.23423 167.80051 31183 ft 535 kts 59°
2026-05-06 14:29 42.26708 167.89140 31191 ft 534 kts 59°
2026-05-06 14:29 42.29989 167.98245 31175 ft 534 kts 59°
2026-05-06 14:30 42.33261 168.07352 31168 ft 537 kts 59°
2026-05-06 14:30 42.36536 168.16504 31172 ft 535 kts 59°
2026-05-06 14:31 42.39811 168.25678 31174 ft 535 kts 59°
2026-05-06 14:31 42.43076 168.34857 31167 ft 536 kts 59°
2026-05-06 14:32 42.46327 168.44029 31178 ft 536 kts 58°
2026-05-06 14:32 42.49572 168.53212 31183 ft 537 kts 58°
2026-05-06 14:33 42.52810 168.62407 31174 ft 536 kts 58°
2026-05-06 14:33 42.56060 168.71666 31140 ft 539 kts 59°
2026-05-06 14:34 42.57692 168.76318 31283 ft 547 kts 59°
2026-05-06 14:34 42.59333 168.81015 31848 ft 546 kts 59°
2026-05-06 14:34 42.60963 168.85692 32652 ft 540 kts 59°
2026-05-06 14:34 42.62583 168.90344 33112 ft 541 kts 59°
2026-05-06 14:35 42.65825 168.99675 33134 ft 539 kts 59°
2026-05-06 14:35 42.69032 169.08936 33133 ft 538 kts 59°
2026-05-06 14:36 42.72331 169.18492 33136 ft 539 kts 59°
2026-05-06 14:36 42.75620 169.28055 33134 ft 539 kts 58°
2026-05-06 14:37 42.78809 169.37358 33134 ft 538 kts 58°
2026-05-06 14:37 42.82008 169.46724 33127 ft 538 kts 58°
2026-05-06 14:38 42.85189 169.56067 33123 ft 538 kts 58°
2026-05-06 14:38 42.88338 169.65347 33143 ft 540 kts 59°
2026-05-06 14:39 42.91511 169.74733 33113 ft 539 kts 59°
2026-05-06 14:39 42.94695 169.84183 33118 ft 539 kts 59°
2026-05-06 14:40 42.97841 169.93552 33107 ft 540 kts 59°
2026-05-06 14:40 43.01032 170.03003 33101 ft 539 kts 57°
2026-05-06 14:41 43.04383 170.12279 33112 ft 538 kts 57°
2026-05-06 14:41 43.07733 170.21568 33113 ft 538 kts 57°
2026-05-06 14:42 43.11058 170.30843 33120 ft 537 kts 57°
2026-05-06 14:42 43.14388 170.40166 33112 ft 539 kts 57°
2026-05-06 14:43 43.17698 170.49481 33120 ft 538 kts 57°
2026-05-06 14:43 43.20999 170.58800 33120 ft 539 kts 57°
2026-05-06 14:44 43.24308 170.68176 33096 ft 540 kts 57°
2026-05-06 14:45 43.29240 170.82217 33101 ft 540 kts 57°
2026-05-06 14:45 43.32514 170.91574 33109 ft 540 kts 57°
2026-05-06 14:46 43.35779 171.00937 33087 ft 542 kts 58°
2026-05-06 14:46 43.39061 171.10390 33089 ft 540 kts 57°
2026-05-06 14:47 43.42322 171.19807 33077 ft 542 kts 58°